LA5PPA-1 Weather Reports


Display with metric or nautical units.
time (UTC)temp
F
wind
direction
speed
MPH
gust
MPH
rain 1hr
in
rain 24hr
in
rain mn
in
humidity
%
barometer
mb
20260503203200 34 78 0.0 0.0 0.00 0.00 0.00 62 1010.6
20260503202700 35 78 0.0 0.0 0.00 0.00 0.00 61 1010.7
20260503202601 35 78 0.0 0.0 0.00 0.00 0.00 61 1010.7
20260503202200 35 78 0.0 2.0 0.00 0.00 0.00 60 1010.6
20260503201700 36 99 1.0 5.0 0.00 0.00 0.00 59 1010.7
20260503201501 36 109 3.0 5.0 0.00 0.00 0.00 59 1010.8
20260503201200 37 122 3.0 3.0 0.00 0.00 0.00 58 1010.7
20260503200700 37 295 0.0 0.0 0.00 0.00 0.00 56 1010.7
20260503200401 37 295 0.0 0.0 0.00 0.00 0.00 56 1010.8
20260503200200 37 295 0.0 0.0 0.00 0.00 0.00 56 1010.8
20260503195700 38 295 0.0 0.0 0.00 0.00 0.00 56 1010.8
20260503195301 38 302 0.0 0.0 0.00 0.00 0.00 55 1010.9
20260503195200 38 302 0.0 0.0 0.00 0.00 0.00 55 1010.9
20260503194700 38 302 0.0 3.0 0.00 0.00 0.00 55 1010.9
20260503194201 39 293 0.0 0.0 0.00 0.00 0.00 54 1010.9
20260503193700 39 293 0.0 0.0 0.00 0.00 0.00 54 1010.9
20260503193200 40 293 0.0 0.0 0.00 0.00 0.00 51 1010.8
20260503193101 40 293 0.0 0.0 0.00 0.00 0.00 51 1011.0
20260503192700 40 293 0.0 0.0 0.00 0.00 0.00 51 1011.0
20260503192200 41 293 0.0 0.0 0.00 0.00 0.00 50 1010.9
20260503192001 41 293 0.0 2.0 0.00 0.00 0.00 50 1010.9
20260503191700 41 293 0.0 3.0 0.00 0.00 0.00 49 1010.9
20260503191200 42 289 0.0 5.0 0.00 0.00 0.00 48 1010.9
20260503190901 42 306 0.0 5.0 0.00 0.00 0.00 48 1011.0
20260503190700 43 299 5.0 5.0 0.00 0.00 0.00 47 1011.0
20260503190200 44 222 0.0 6.0 0.00 0.00 0.00 46 1010.9
20260503185801 45 262 2.0 7.0 0.00 0.00 0.00 45 1010.9
20260503185700 44 327 2.0 7.0 0.00 0.00 0.00 45 1010.9
20260503185200 45 282 0.0 4.0 0.00 0.00 0.00 45 1010.8
20260503184700 44 292 2.0 8.0 0.00 0.00 0.00 45 1010.8
20260503184200 44 302 1.0 6.0 0.00 0.00 0.00 45 1010.9
20260503183700 44 295 0.0 7.0 0.00 0.00 0.00 45 1010.9
20260503183601 44 299 2.0 7.0 0.00 0.00 0.00 45 1010.9
20260503183200 44 323 0.0 7.0 0.00 0.00 0.00 45 1011.0
20260503182701 44 258 5.0 8.0 0.00 0.00 0.00 44 1011.0
20260503182501 44 310 2.0 7.0 0.00 0.00 0.00 44 1010.9
20260503182200 44 292 4.0 7.0 0.00 0.00 0.00 44 1010.9
20260503181700 44 302 4.0 9.0 0.00 0.00 0.00 43 1010.9
20260503181401 44 217 2.0 10.0 0.00 0.00 0.00 42 1010.9
20260503181200 44 293 4.0 10.0 0.00 0.00 0.00 42 1010.9
20260503180700 45 241 1.0 8.0 0.00 0.00 0.00 42 1011.0
20260503180301 45 299 2.0 8.0 0.00 0.00 0.00 41 1011.0
20260503180200 45 309 6.0 8.0 0.00 0.00 0.00 41 1011.0
20260503175700 45 317 4.0 9.0 0.00 0.00 0.00 41 1011.0
20260503175200 45 310 2.0 11.0 0.00 0.00 0.00 39 1011.0
20260503174700 45 322 11.0 11.0 0.00 0.00 0.00 40 1011.0
20260503174200 45 289 4.0 8.0 0.00 0.00 0.00 39 1011.0
20260503174101 45 291 5.0 11.0 0.00 0.00 0.00 39 1011.1
20260503173700 45 300 3.0 12.0 0.00 0.00 0.00 38 1011.2
20260503173200 46 323 3.0 10.0 0.00 0.00 0.00 39 1011.3
20260503173002 46 329 3.0 10.0 0.00 0.00 0.00 38 1011.3
20260503172701 46 293 3.0 9.0 0.00 0.00 0.00 39 1011.2
20260503172201 46 307 4.0 12.0 0.00 0.00 0.00 39 1011.3
20260503171901 46 310 5.0 12.0 0.00 0.00 0.00 39 1011.3
20260503171701 46 310 5.0 10.0 0.00 0.00 0.00 39 1011.3
20260503171201 46 320 7.0 12.0 0.00 0.00 0.00 40 1011.2
20260503170802 46 282 3.0 12.0 0.00 0.00 0.00 38 1011.3
20260503170701 46 282 8.0 8.0 0.00 0.00 0.00 39 1011.3
20260503170201 46 323 3.0 14.0 0.00 0.00 0.00 36 1011.3
20260503160201 47 310 6.0 13.0 0.00 0.00 0.00 37 1011.8
20260503150701 50 298 4.0 11.0 0.00 0.00 0.00 23 1012.1
20260503150201 51 225 4.0 14.0 0.00 0.00 0.00 24 1012.1
20260503140201 52 296 5.0 11.0 0.00 0.00 0.00 30 1012.6
20260503131201 52 310 4.0 10.0 0.00 0.00 0.00 35 1013.1
20260503130701 52 277 2.0 9.0 0.00 0.00 0.00 34 1013.1
20260503130602 52 319 2.0 9.0 0.00 0.00 0.00 32 1013.1
20260503130201 52 147 1.0 9.0 0.00 0.00 0.00 35 1013.1
20260503120201 50 289 4.0 6.0 0.00 0.00 0.00 48 1013.7
20260503110701 47 319 2.0 8.0 0.00 0.00 0.00 46 1013.9
20260503110502 47 334 2.0 8.0 0.00 0.00 0.00 47 1014.0
20260503110201 47 248 1.0 9.0 0.00 0.00 0.00 46 1014.0
20260503100201 43 279 0.0 2.0 0.00 0.00 0.00 58 1014.6
20260503090402 47 300 0.0 8.0 0.00 0.00 0.00 58 1014.8
20260503090201 47 111 3.0 8.0 0.00 0.00 0.00 60 1014.8
20260503081201 43 59 0.0 0.0 0.00 0.00 0.00 66 1015.0
20260503080902 42 59 0.0 1.0 0.00 0.00 0.00 67 1015.0
20260503080701 42 59 0.0 1.0 0.00 0.00 0.00 67 1015.0
20260503080201 42 144 0.0 0.0 0.00 0.00 0.00 68 1015.0
20260503072701 39 111 2.0 5.0 0.00 0.00 0.00 73 1015.0
20260503072503 39 130 2.0 5.0 0.00 0.00 0.00 73 1015.2
20260503072202 39 94 0.0 4.0 0.00 0.00 0.00 74 1015.0
20260503071702 39 23 0.0 3.0 0.00 0.00 0.00 74 1015.2
20260503071403 39 39 2.0 3.0 0.00 0.00 0.00 75 1015.2
20260503071202 39 189 0.0 2.0 0.00 0.00 0.00 75 1015.0
20260503070702 38 47 0.0 4.0 0.00 0.00 0.00 75 1015.0
20260503070303 38 191 1.0 2.0 0.00 0.00 0.00 75 1015.0
20260503070202 38 40 0.0 2.0 0.00 0.00 0.00 75 1015.0
20260503060202 37 144 4.0 4.0 0.00 0.00 0.00 82 1014.8
20260503054702 36 129 3.0 5.0 0.00 0.00 0.00 83 1014.7
20260503054603 36 90 1.0 5.0 0.00 0.00 0.00 83 1014.7
20260503054202 36 105 2.0 7.0 0.00 0.00 0.00 84 1014.7
20260503053702 36 146 2.0 5.0 0.00 0.00 0.00 85 1014.7
20260503053503 36 106 2.0 5.0 0.00 0.00 0.00 85 1014.7
20260503053202 36 111 1.0 5.0 0.00 0.00 0.00 86 1014.7
20260503052702 35 118 2.0 4.0 0.00 0.00 0.00 86 1014.7
20260503052403 35 229 1.0 4.0 0.00 0.00 0.00 87 1014.7
20260503052202 35 135 0.0 2.0 0.00 0.00 0.00 87 1014.7
20260503052120 35 126 2.0 2.0 0.00 0.00 0.00 87 1014.7
20260503051702 35 135 0.0 3.0 0.00 0.00 0.00 87 1014.7
20260503051607 34 63 0.0 0.0 0.00 0.00 0.00 88 1014.7
20260503051303 35 126 2.0 2.0 0.00 0.00 0.00 87 1014.7
20260503051202 35 74 0.0 2.0 0.00 0.00 0.00 87 1014.6
20260503050702 35 63 0.0 0.0 0.00 0.00 0.00 87 1014.6
20260503050202 34 63 0.0 0.0 0.00 0.00 0.00 88 1014.6
20260503045702 34 63 0.0 0.0 0.00 0.00 0.00 88 1014.6
20260503045202 34 63 0.0 0.0 0.00 0.00 0.00 88 1014.7
20260503045103 34 63 0.0 0.0 0.00 0.00 0.00 88 1014.7
20260503044702 34 63 0.0 0.0 0.00 0.00 0.00 88 1014.8
20260503044202 34 63 0.0 0.0 0.00 0.00 0.00 88 1014.8
20260503044003 34 63 0.0 1.0 0.00 0.00 0.00 88 1014.8
20260503043702 34 63 0.0 1.0 0.00 0.00 0.00 88 1014.7
20260503043202 34 279 0.0 0.0 0.00 0.00 0.00 88 1014.6
20260503042903 33 279 0.0 0.0 0.00 0.00 0.00 88 1014.7
20260503042702 33 279 0.0 1.0 0.00 0.00 0.00 88 1014.6
20260503042202 33 312 0.0 1.0 0.00 0.00 0.00 88 1014.6
20260503041803 33 299 0.0 0.0 0.00 0.00 0.00 88 1014.6
20260503041702 33 299 0.0 0.0 0.00 0.00 0.00 88 1014.6
20260503041202 33 299 0.0 0.0 0.00 0.00 0.00 88 1014.5
20260503040702 33 299 0.0 1.0 0.00 0.00 0.00 88 1014.5
20260503040202 33 338 0.0 0.0 0.00 0.00 0.00 88 1014.4
20260503035702 33 338 0.0 0.0 0.00 0.00 0.00 88 1014.3
20260503035603 33 338 0.0 0.0 0.00 0.00 0.00 88 1014.4
20260503035202 33 306 0.0 1.0 0.00 0.00 0.00 87 1014.4
20260503034702 33 40 0.0 0.0 0.00 0.00 0.00 87 1014.3
20260503034503 33 40 0.0 0.0 0.00 0.00 0.00 87 1014.3
20260503034202 33 40 0.0 0.0 0.00 0.00 0.00 87 1014.3
20260503033702 33 40 0.0 0.0 0.00 0.00 0.00 87 1014.4
20260503033403 33 40 0.0 0.0 0.00 0.00 0.00 87 1014.3
20260503033202 33 40 0.0 0.0 0.00 0.00 0.00 87 1014.4
20260503032702 33 40 0.0 0.0 0.00 0.00 0.00 87 1014.4
20260503032304 33 40 0.0 0.0 0.00 0.00 0.00 88 1014.5
20260503032202 33 40 0.0 0.0 0.00 0.00 0.00 88 1014.5
20260503031702 33 40 0.0 0.0 0.00 0.00 0.00 88 1014.5
20260503031202 33 40 0.0 0.0 0.00 0.00 0.00 88 1014.5
20260503030702 33 40 0.0 0.0 0.00 0.00 0.00 88 1014.5
20260503030533 32 40 0.0 0.0 0.00 0.00 0.00 88 1014.5
20260503030202 33 40 0.0 0.0 0.00 0.00 0.00 88 1014.5
20260503025702 32 40 0.0 0.0 0.00 0.00 0.00 88 1014.5
20260503025202 32 40 0.0 0.0 0.00 0.00 0.00 88 1014.5
20260503025003 32 40 0.0 0.0 0.00 0.00 0.00 88 1014.5
20260503024702 32 40 0.0 0.0 0.00 0.00 0.00 87 1014.5
20260503024202 32 40 0.0 0.0 0.00 0.00 0.00 87 1014.4
20260503023903 32 40 0.0 0.0 0.00 0.00 0.00 87 1014.5
20260503023852 32 40 0.0 2.0 0.00 0.00 0.00 88 1014.5
20260503023702 32 40 0.0 0.0 0.00 0.00 0.00 87 1014.4
20260503023202 32 40 0.0 0.0 0.00 0.00 0.00 87 1014.4
20260503022803 32 40 0.0 2.0 0.00 0.00 0.00 88 1014.5
20260503022702 32 40 0.0 2.0 0.00 0.00 0.00 88 1014.4
20260503022202 32 68 0.0 0.0 0.00 0.00 0.00 87 1014.5
20260503021702 32 68 0.0 0.0 0.00 0.00 0.00 87 1014.5
20260503021202 32 68 0.0 0.0 0.00 0.00 0.00 87 1014.5
20260503020743 33 68 0.0 0.0 0.00 0.00 0.00 86 1014.5
20260503020702 33 68 0.0 0.0 0.00 0.00 0.00 86 1014.5
20260503020603 33 68 0.0 0.0 0.00 0.00 0.00 86 1014.5
20260503020202 33 68 0.0 0.0 0.00 0.00 0.00 86 1014.6
20260503015702 33 68 0.0 0.0 0.00 0.00 0.00 86 1014.5
20260503015503 33 68 0.0 0.0 0.00 0.00 0.00 86 1014.5
20260503015202 33 68 0.0 0.0 0.00 0.00 0.00 86 1014.5
20260503014702 33 71 0.0 2.0 0.00 0.00 0.00 85 1014.5
20260503014403 34 47 0.0 0.0 0.00 0.00 0.00 85 1014.5
20260503014202 34 47 0.0 0.0 0.00 0.00 0.00 85 1014.5
20260503013702 34 47 0.0 2.0 0.00 0.00 0.00 86 1014.5
20260503013303 34 307 0.0 4.0 0.00 0.00 0.00 87 1014.6
20260503013202 34 323 1.0 4.0 0.00 0.00 0.00 87 1014.5
20260503012702 33 315 4.0 4.0 0.00 0.00 0.00 88 1014.5
20260503012202 33 52 0.0 0.0 0.00 0.00 0.00 86 1014.5
20260503011702 33 52 0.0 0.0 0.00 0.00 0.00 86 1014.5
20260503011202 34 52 0.0 1.0 0.00 0.00 0.00 86 1014.5
20260503011104 34 52 0.0 1.0 0.00 0.00 0.00 86 1014.5
20260503010702 34 98 0.0 1.0 0.00 0.00 0.00 86 1014.5
20260503010202 34 109 1.0 1.0 0.00 0.00 0.00 86 1014.5
20260503010003 34 358 0.0 2.0 0.00 0.00 0.00 86 1014.5
20260503005702 34 320 1.0 2.0 0.00 0.00 0.00 86 1014.4
20260503005202 34 331 0.0 2.0 0.00 0.00 0.00 87 1014.5
20260503004903 34 354 0.0 2.0 0.00 0.00 0.00 87 1014.5
20260503004702 34 334 0.0 1.0 0.00 0.00 0.00 87 1014.5
20260503004202 34 340 0.0 1.0 0.00 0.00 0.00 87 1014.5
20260503003803 34 338 0.0 1.0 0.00 0.00 0.00 87 1014.3
20260503003702 34 338 0.0 2.0 0.00 0.00 0.00 87 1014.4
20260503003202 33 29 0.0 2.0 0.00 0.00 0.00 87 1014.4
20260503002702 33 30 0.0 1.0 0.00 0.00 0.00 86 1014.3
20260503002202 33 5 0.0 1.0 0.00 0.00 0.00 86 1014.4
20260503001702 33 45 0.0 1.0 0.00 0.00 0.00 85 1014.4
20260503001603 34 16 0.0 1.0 0.00 0.00 0.00 85 1014.4
20260503001202 34 60 0.0 0.0 0.00 0.00 0.00 85 1014.4
20260503000702 34 60 0.0 0.0 0.00 0.00 0.00 85 1014.4
20260503000503 34 60 0.0 1.0 0.00 0.00 0.00 85 1014.4
20260503000203 34 78 0.0 1.0 0.00 0.00 0.00 86 1014.4
20260502235702 34 334 0.0 2.0 0.00 0.00 0.00 86 1014.4
20260502235403 34 338 0.0 3.0 0.00 0.00 0.00 86 1014.5
20260502235202 34 313 1.0 3.0 0.00 0.00 0.00 86 1014.5
20260502234702 34 343 0.0 0.0 0.00 0.00 0.00 85 1014.6
20260502234303 34 343 0.0 1.0 0.00 0.00 0.00 86 1014.6
20260502234202 34 343 0.0 1.0 0.00 0.00 0.00 86 1014.7
20260502233702 34 0 0.0 2.0 0.00 0.00 0.00 85 1014.7
20260502233202 34 39 2.0 2.0 0.00 0.00 0.00 85 1014.7
20260502232702 34 18 0.0 0.0 0.00 0.00 0.00 84 1014.7
20260502232202 35 18 0.0 0.0 0.00 0.00 0.00 83 1014.7
20260502232103 35 18 0.0 0.0 0.00 0.00 0.00 83 1014.7
20260502231703 35 18 0.0 0.0 0.00 0.00 0.00 83 1014.7
20260502231202 35 18 0.0 2.0 0.00 0.00 0.00 83 1014.7
20260502231003 36 37 1.0 2.0 0.00 0.00 0.00 83 1014.7
20260502230703 36 334 0.0 2.0 0.00 0.00 0.00 84 1014.7
20260502230202 36 23 0.0 3.0 0.00 0.00 0.00 84 1014.7
20260502225903 36 310 3.0 4.0 0.00 0.00 0.00 84 1014.6
20260502225702 36 327 2.0 4.0 0.00 0.00 0.00 85 1014.6
20260502225202 36 336 0.0 2.0 0.00 0.00 0.00 83 1014.6
20260502224803 36 22 0.0 4.0 0.00 0.00 0.00 84 1014.6
20260502224702 36 348 1.0 4.0 0.00 0.00 0.00 84 1014.6
20260502224202 36 316 4.0 4.0 0.00 0.00 0.00 84 1014.7
20260502223702 36 344 2.0 2.0 0.00 0.00 0.00 83 1014.6
20260502223202 36 316 0.0 2.0 0.00 0.00 0.00 83 1014.6
20260502222702 36 14 1.0 1.0 0.00 0.00 0.00 83 1014.6
20260502222603 36 21 1.0 1.0 0.00 0.00 0.00 82 1014.6
20260502222202 36 331 0.0 1.0 0.00 0.00 0.00 82 1014.6
20260502221702 36 8 0.0 3.0 0.00 0.00 0.00 82 1014.5
20260502221503 36 329 2.0 6.0 0.00 0.00 0.00 82 1014.5
20260502221202 36 345 0.0 6.0 0.00 0.00 0.00 82 1014.5
20260502220403 36 323 3.0 5.0 0.00 0.00 0.00 82 1014.5
20260502220202 36 327 4.0 5.0 0.00 0.00 0.00 82 1014.4
20260502215702 37 310 0.0 6.0 0.00 0.00 0.00 82 1014.4
20260502215305 37 336 1.0 4.0 0.00 0.00 0.00 82 1014.4
20260502215202 37 323 2.0 4.0 0.00 0.00 0.00 82 1014.4
20260502214702 37 330 3.0 4.0 0.00 0.00 0.00 81 1014.3
20260502214202 37 354 2.0 5.0 0.00 0.00 0.00 82 1014.3
20260502213702 37 313 2.0 5.0 0.00 0.00 0.00 82 1014.4
20260502213202 37 334 3.0 5.0 0.00 0.00 0.00 82 1014.4
20260502213103 37 343 2.0 5.0 0.00 0.00 0.00 81 1014.5
20260502212702 37 333 1.0 3.0 0.00 0.00 0.00 81 1014.4
20260502212202 37 323 2.0 4.0 0.00 0.00 0.00 81 1014.5
20260502212004 37 327 0.0 4.0 0.00 0.00 0.00 81 1014.5
20260502211702 37 327 0.0 4.0 0.00 0.00 0.00 80 1014.6
20260502211202 37 324 2.0 4.0 0.00 0.00 0.00 80 1014.6
20260502210904 37 324 3.0 4.0 0.00 0.00 0.00 80 1014.6
20260502210702 37 316 3.0 4.0 0.00 0.00 0.00 81 1014.5
20260502210202 37 330 2.0 6.0 0.00 0.00 0.00 81 1014.5
20260502205804 37 340 2.0 6.0 0.00 0.00 0.00 81 1014.5
20260502205702 37 307 5.0 6.0 0.00 0.00 0.00 81 1014.5
20260502205202 38 347 0.0 4.0 0.00 0.00 0.00 80 1014.4
20260502204702 38 351 1.0 3.0 0.00 0.00 0.00 80 1014.5
20260502204202 38 29 1.0 5.0 0.00 0.00 0.00 80 1014.5
20260502203702 38 337 3.0 6.0 0.00 0.00 0.00 80 1014.5
20260502203604 38 312 3.0 6.0 0.00 0.00 0.00 80 1014.5